1301097628692,17.8393
1301097688692,17.8311
1301097748692,17.8323
1301097808692,17.7906
1301097868692,17.7463
1301097928692,17.7254
1301097988692,17.7544
1301098048692,17.7627
1301098108692,17.7226
1301098168692,17.7307
1301098228692,17.7682
1301098288692,17.7323
1301098348692,17.7238
1301098408692,17.7355
1301098468692,17.7331
1301098528692,17.7270
1301098588692,17.7663
1301098648692,17.8337
1301098708692,17.8013
1301098768692,17.7657
1301098828692,17.7476
1301098888692,17.7797
1301098948692,17.8033
1301099008692,17.7484
1301099068692,17.8195
1301099128692,17.7670
1301099188692,17.8266
1301099248692,17.7622
1301099308692,17.8168
1301099368692,17.7911
1301099428692,17.8049
1301099488692,17.8214
1301099548692,17.8599
1301099608692,17.8569
1301099668692,17.8320
1301099728692,17.7979
1301099788692,17.7824
1301099848692,17.7625
1301099908692,17.7928
1301099968692,17.7978
1301100028692,17.7950
1301100088692,17.7634
1301100148692,17.7316
1301100208692,17.7661
1301100268692,17.7640
1301100328692,17.7237
1301100388692,17.7264
1301100448692,17.7125
1301100508692,17.7496
1301100568692,17.7384
1301100628692,17.7330
1301100688692,17.6974
1301100748692,17.7652
1301100808692,17.7824
1301100868692,17.7114
1301100928692,17.6847
1301100988692,17.8077
1301101048692,18.0618
1301101108692,18.1724
1301101168692,18.1018
1301101228705,18.1059
1301101288704,18.0662
1301101348705,17.9535
1301101408705,17.9249
1301101468705,17.8045
1301101528705,17.8302
1301101588705,17.7769
1301101648705,17.7375
1301101708705,17.7812
1301101768705,17.7379
1301101828705,17.8251
1301101888705,17.7945
1301101948705,17.8674
1301102008705,17.8231
1301102068705,17.8207
1301102128705,17.8047
1301102188705,17.8183
1301102248705,17.7992
1301102308705,17.7693
1301102368705,17.7631
1301102428705,17.7763
1301102488705,17.7464
1301102548705,17.7794
1301102608704,17.7660
1301102668704,17.7543
1301102728705,17.8058
1301102788705,17.7925
1301102848705,17.7346
1301102908705,17.7415
1301102968705,17.7395
1301103028705,17.7851
1301103088705,17.7829
1301103148705,17.7909
1301103208705,17.8336
1301103268705,17.7723
1301103328705,17.8090
1301103388705,17.7795
1301103448705,17.7883
1301103508705,17.8077
1301103568705,17.7710
1301103628705,17.8118
1301103688705,17.7732
1301103748705,17.7470
1301103808705,17.7337
1301103868705,17.7095
1301103928705,17.6861
1301103988704,17.7125
1301104048705,17.7339
1301104108705,17.7435
1301104168705,17.7264
1301104228705,17.7406
1301104288705,17.7128
1301104348705,17.7162
1301104408705,17.6995
1301104468705,17.7074
1301104528705,17.7384
1301104588705,17.7276
1301104648705,17.7237
1301104708705,17.6730
1301104768705,17.7135
1301104828717,17.6962
1301104888717,17.7478
1301104948717,17.6951
1301105008717,17.7618
1301105068717,17.7528
1301105128717,17.7404
1301105188717,17.6928
1301105248717,17.7437
1301105308717,17.7764
1301105368717,17.7843
1301105428717,17.7854
1301105488717,17.8103
1301105548717,17.7631
1301105608717,17.7729
1301105668717,17.7572
1301105728717,17.8445
1301105788717,17.8054
1301105848717,17.8147
1301105908717,17.8089
1301105968717,17.8211
1301106028717,17.8190
1301106088717,17.7880
1301106148717,17.7465
1301106208717,17.7839
1301106268717,17.7542
1301106328717,17.7640
1301106388717,17.8134
1301106448717,17.8182
1301106508717,17.7932
1301106568717,17.8307
1301106628717,17.7486
1301106688717,17.7875
1301106748717,17.7887
1301106808717,17.7562
1301106868717,17.7800
1301106928717,17.8442
1301106988717,17.7585
1301107048717,17.7861
1301107108717,17.7688
1301107168717,17.8031
1301107228717,17.7726
1301107288717,17.7561
1301107348717,17.7792
1301107408717,17.8419
1301107468717,17.7747
1301107528717,17.8101
1301107588717,17.8312
1301107648717,17.7974
1301107708717,17.8275
1301107768717,17.8477
1301107828717,17.8145
1301107888717,17.8056
1301107948717,17.8377
1301108008717,17.8277
1301108068717,17.8028
1301108128717,17.7940
1301108188717,17.7416
1301108248717,17.7587
1301108308717,17.7741
1301108368717,17.7762
1301108428729,17.7742
1301108488729,17.7652
1301108548729,17.7681
1301108608729,17.7885
1301108668729,17.8099
1301108728729,17.7796
1301108788729,17.8229
1301108848729,17.8324
1301108908729,17.7937
1301108968729,17.8530
1301109028729,17.8130
1301109088729,17.8333
1301109148729,17.8089
1301109208729,17.8194
1301109268729,17.8193
1301109328729,17.8308
1301109388729,17.8955
1301109448729,17.8625
1301109508729,17.8532
1301109568729,17.9048
1301109628729,17.8757
1301109688729,17.8385
1301109748729,17.8040
1301109808729,17.8235
1301109868729,17.8386
1301109928729,17.8375
1301109988729,17.8766
1301110048729,17.8469
1301110108729,17.8841
1301110168729,17.8483
1301110228729,17.8263
1301110288729,17.8220
1301110348729,17.8210
1301110408729,17.7653
1301110468729,17.8108
1301110528729,17.7938
1301110588729,17.8003
1301110648729,17.8056
1301110708729,17.8184
1301110768729,17.8368
1301110828729,17.8758
1301110888729,17.8011
1301110948729,17.8396
1301111008729,17.8314
1301111068729,17.8263
1301111128729,17.8524
1301111188729,17.8282
1301111248729,17.7883
1301111308729,17.8309
1301111368729,17.8753
1301111428729,17.9031
1301111488729,17.8697
1301111548729,17.8357
1301111608729,17.8352
1301111668729,17.8447
1301111728729,17.8376
1301111788729,17.8436
1301111848729,17.8154
1301111908729,17.8359
1301111968729,17.8194
1301112028740,17.7883
1301112088740,17.8018
1301112148740,17.8040
1301112208740,17.8403
1301112268740,17.8633
1301112328740,17.7776
1301112388740,17.8259
1301112448740,17.8112
1301112508740,17.7612
1301112568740,17.8752
1301112628740,17.8731
1301112688740,17.8458
1301112748741,17.8254
1301112808741,17.8497
1301112868740,17.8439
1301112928740,17.8137
1301112988740,17.8017
1301113048740,17.8644
1301113108740,17.8635
1301113168740,17.8376
1301113228740,17.8089
1301113288740,17.8049
1301113348740,17.7687
1301113408740,17.8599
1301113468740,17.8647
1301113528740,17.7710
1301113588740,17.8314
1301113648740,17.8862
1301113708740,17.8565
1301113768740,17.8748
1301113828740,17.8955
1301113888740,17.8820
1301113948740,17.8257
1301114008740,17.9040
1301114068740,17.8278
1301114128741,17.8461
1301114188741,17.8331
1301114248740,17.8059
1301114308740,17.8282
1301114368740,17.8373
1301114428740,17.8197
1301114488740,17.8923
1301114548740,17.8816
1301114608740,17.8500
1301114668740,17.8561
1301114728740,17.8526
1301114788740,17.8838
1301114848740,17.8621
1301114908740,17.8594
1301114968740,17.8352
1301115028740,17.8526
1301115088740,17.8681
1301115148740,17.8662
1301115208740,17.8564
1301115268740,17.8538
1301115328740,17.8294
1301115388740,17.8590
1301115448741,17.8411
1301115508741,17.8604
1301115568740,17.9091
1301115628752,17.8991
1301115688752,17.8879
1301115748752,17.8855
1301115808752,17.9353
1301115868752,17.9290
1301115928752,17.9781
1301115988752,17.9684
1301116048752,17.8921
1301116108752,17.9183
1301116168752,17.9125
1301116228752,17.9042
1301116288752,17.8858
1301116348752,17.9712
1301116408752,17.8932
1301116468752,17.8948
1301116528752,17.9312
1301116588752,17.8938
1301116648752,17.8879
1301116708752,17.8838
1301116768752,17.8536
1301116828752,17.8944
1301116888752,17.8683
1301116948752,17.8792
1301117008752,17.9014
1301117068752,17.8900
1301117128752,17.8503
1301117188752,17.8806
1301117248752,17.9493
1301117308752,17.9394
1301117368752,17.9393
1301117428752,17.9046
1301117488752,17.9503
1301117548752,17.8741
1301117608752,17.9647
1301117668752,17.9693
1301117728752,17.9523
1301117788752,17.9585
1301117848752,17.9690
1301117908752,17.9904
1301117968752,17.9722
1301118028752,18.0225
1301118088752,17.9669
1301118148752,18.0162
1301118208752,17.9805
1301118268752,17.9976
1301118328752,17.9419
1301118388752,17.9777
1301118448752,17.9850
1301118508752,17.9875
1301118568752,17.9743
1301118628752,18.0248
1301118688752,17.9995
1301118748752,17.9728
1301118808752,18.0273
1301118868752,18.0708
1301118928752,18.0067
1301118988752,18.0015
1301119048752,18.0077
1301119108752,17.9491
1301119168752,17.9990
1301119228764,18.0343
1301119288764,17.9541
1301119348764,18.0107
1301119408764,18.0511
1301119468764,17.9545
1301119528764,17.9567
1301119588764,17.9600
1301119648764,17.9400
1301119708764,17.9602
1301119768764,17.9416
1301119828764,17.9086
1301119888764,17.9197
1301119948764,17.9459
1301120008764,17.9106
1301120068764,17.7406
1301133088797,18.0074
1301133148797,18.0459
1301133208797,18.0452
1301133268797,18.0456
1301133328797,18.0282
1301133388797,18.0288
1301133448797,18.0442
1301133508797,17.9851
1301133568797,18.0342
1301133628808,18.0744
1301133688808,18.0247
1301133748808,18.0612
1301133808808,18.0843
1301133868808,18.0365
1301133928808,17.9948
1301133988808,18.0095
1301134048808,18.0398
1301134108808,18.0317
1301134168808,18.0305
1301134228808,18.0617
1301134288808,18.0817
1301134348808,18.0192
1301134408808,18.0292
1301134468808,18.0416
1301134528808,18.0552
1301134588808,18.0453
1301134648808,18.0313
1301134708808,18.0346
1301134768808,18.0400
1301134828808,18.0474
1301134888808,18.0044
1301134948808,17.9699
1301135008808,18.0458
1301135068808,18.0776
1301135128808,18.0433
1301135188808,18.0142
1301135248808,18.0298
1301135308808,18.0137
1301135368808,17.9409
1301135428808,17.9629
1301135488808,18.0221
1301135548808,17.9921
1301135608808,18.0270
1301135668808,17.9961
1301135728808,17.9699
1301135788808,18.0109
1301135848808,18.0281
1301135908808,18.0492
1301135968808,18.0680
1301136028808,18.0069
1301136088808,17.9556
1301136148808,18.0164
1301136208808,18.0171
1301136268808,18.0249
1301136328808,18.0177
1301136388808,18.0085
1301136448808,18.0283
1301136508808,18.0845
1301136568808,18.0320
1301136628808,18.0169
1301136688808,18.0731
1301136748808,18.0491
1301136808808,18.0322
1301136868808,18.0564
1301136928808,18.1358
1301136988808,18.0322
1301137048808,18.1317
1301137108808,18.0444
1301137168808,18.1067
1301137228820,18.0735
1301137288820,18.1335
1301137348820,18.1525
1301137408820,18.1390
1301137468820,18.1651
1301137528820,18.1378
1301137588820,18.1585
1301137648820,18.0813
1301137708820,18.1300
1301137768820,18.1166
1301137828820,18.1180
1301137888820,18.0921
1301138428820,18.0827
1301138488820,18.0986
1301138548820,18.0523
1301138608820,18.0840
1301138668820,18.0561
1301138728820,18.0298
1301138788820,18.0186
1301138848820,18.0150
1301138908820,18.0576
1301138968820,18.0191
1301139028820,18.0068
1301139088820,18.0242
1301139148820,18.0299
1301139208820,18.0169
1301139268820,18.0139
1301139328820,18.0119
1301139388820,18.0289
1301139448820,18.0045
1301139508820,17.9666
1301139568820,18.0241
1301139628820,18.0030
1301139688820,17.9947
1301139748820,18.0225
1301139808820,17.9772
1301139868820,17.9872
1301139928820,18.0246
1301139988820,18.0813
1301140048820,18.0210
1301140108820,18.0739
1301140168820,18.0262
1301140228820,18.0071
1301140288820,18.0316
1301140348820,18.0113
1301140408820,18.0123
1301140468820,18.0591
1301140528820,17.9761
1301140588820,18.0634
1301140648820,18.0658
1301140708820,18.0823
1301140768820,18.0688
1301140828832,18.0645
1301140888832,18.0474
1301140948832,18.0868
1301141008832,18.0516
1301141068832,18.1008
1301141128832,18.0457
1301141188832,18.0581
1301141248832,18.1139
1301141308832,18.0679
1301141368832,18.0734
1301141428832,18.0524
1301141488832,18.0638
1301141548832,18.0870
1301141608832,18.0994
1301141668832,18.0333
1301141728832,18.0166
1301141788832,18.0488
1301141848832,18.0660
1301141908832,18.1044
1301141968832,18.1155
1301142028832,18.0854
1301142088832,18.1483
1301142148832,18.0938
1301142208832,18.0651
1301142268832,18.0840
1301142328832,18.1365
1301142388832,18.1255
1301142448832,18.1298
1301142508832,18.1058
1301142568832,18.0834
1301142628832,18.0678
1301142688832,18.0429
1301142748832,18.0367
1301142808832,18.0960
1301142868832,18.0911
1301142928832,18.0942
1301142988832,18.0648
1301143048832,18.1054
1301143108832,18.0692
1301143168832,18.0517
1301143228832,18.0234
1301143288832,18.0895
1301143348832,18.0065
1301143408832,18.0530
1301143468832,18.0857
1301143528832,17.9954
1301143588832,18.0484
1301143648832,18.0611
1301143708832,18.0327
1301143768832,18.0888
1301143828832,18.0652
1301143888832,18.0863
1301143948832,18.0390
1301144008832,18.1141
1301144068832,18.0493
1301144128832,18.0552
1301144188832,18.0913
1301144248832,18.0854
1301144308832,18.0956
1301144368832,18.1468
1301144428844,18.1381
1301144488844,18.1218
1301144548844,18.1312
1301144608844,18.1009
1301144668844,18.0993
1301144728844,18.1131
1301144788844,18.1466
1301144848844,18.1304
1301144908844,18.1700
1301144968844,18.1268
1301145028844,18.0987
1301145088844,18.1522
1301145148844,18.0932
1301145208844,18.1165
1301145268844,18.0892
1301145328844,18.0669
1301145388844,18.1093
1301145448844,18.0906
1301145508844,18.1512
1301145568844,18.2052
1301145628844,18.1186
1301145688844,18.1184
1301145748844,18.2464
1301145808844,18.1976
1301145868844,18.1406
1301145928844,18.1565
1301145988844,18.2104
1301146048844,18.1692
1301146108844,18.1574
1301146168844,18.1196
1301146228844,18.1670
1301146288844,18.2311
1301146348844,18.1251
1301146408844,18.1961
1301146468844,18.1414
1301146528844,18.1113
1301146588844,18.1154
1301146648844,18.1097
1301146708844,18.1436
1301146768844,18.1289
1301146828844,18.1071
1301146888844,18.0440
1301146948844,18.0727
1301147008844,18.1080
1301147068844,18.0960
1301147128844,18.0969
1301147188844,18.1127
1301147248844,18.0974
1301147308844,18.1046
1301147368844,18.0952
1301147428844,18.0810
1301147488844,18.1125
1301147548844,18.0803
1301147608844,18.1224
1301147668844,18.0481
1301147728844,18.0305
1301147788844,18.0596
1301147848844,18.0639
1301147908844,18.1055
1301147968844,18.1094
1301148028856,18.1225
1301148088856,18.1802
1301148148856,18.2140
1301148208856,18.2137
1301148268856,18.1870
1301148328856,18.2161
1301148388856,18.2820
1301148448856,18.3484
1301148508856,18.2720
1301148568856,18.2579
1301148628856,18.2523
1301148688856,18.2258
1301148748856,18.1929
1301148808856,18.1769
1301148868856,18.2158
1301148928856,18.1860
1301148988856,18.2334
1301149048856,18.2490
1301149108856,18.2601
1301149168856,18.2125
1301149228856,18.2410
1301149288856,18.2057
1301149348856,18.2450
1301149408856,18.2795
1301149468856,18.2719
1301149528856,18.2561
1301149588856,18.2603
1301149648856,18.2810
1301149708856,18.2535
1301149768856,18.2862
1301149828856,18.2814
1301149888856,18.2906
1301149948856,18.2425
1301150008856,18.2417
1301150068856,18.2018
1301150128856,18.2311
1301150188856,18.1766
1301150248856,18.1785
1301150308856,18.2011
1301150368856,18.1684
1301150428856,18.1476
1301150488856,18.1742
1301150548856,18.1724
1301150608856,18.1762
1301150668856,18.3304
1301150728856,18.3730
1301150788856,18.3480
1301150848856,18.3775
1301150908856,18.2760
1301150968856,18.2575
1301151028856,18.2345
1301151088856,18.2527
1301151148856,18.1917
1301151208856,18.2102
1301151268856,18.1869
1301151328856,18.2508
1301151388856,18.2838
1301151448856,18.2033
1301151508856,18.2103
1301151568856,18.2212
1301151628868,18.2446
1301151688868,18.2352
1301151748868,18.2442
1301151808868,18.2274
1301151868868,18.2081
1301151928868,18.2115
1301151988868,18.2302
1301152048868,18.2321
1301152108868,18.2353
1301152168868,18.1967
1301152228868,18.1720
1301152288868,18.1727
1301152348868,18.1789
1301152408868,18.1697
1301152468868,18.1481
1301152528868,18.1274
1301152588868,18.1984
1301152648868,18.1746
1301152708868,18.2029
1301152768868,18.2163
1301152828868,18.1559
1301152888868,18.2163
1301152948868,18.2328
1301153008868,18.1663
1301153068868,18.1958
1301153128868,18.1511
1301153188868,18.2162
1301153248868,18.1972
1301153308868,18.2210
1301153368868,18.2362
1301153428868,18.2276
1301153488868,18.2748
1301153548868,18.2073
1301153608868,18.2027
1301153668868,18.2329
1301153728868,18.2282
1301153788868,18.2497
1301153848868,18.2333
1301153908868,18.1838
1301153968868,18.1959
1301154028868,18.1549
1301154088868,18.2099
1301154148868,18.1822
1301154208868,18.1738
1301154268868,18.1296
1301154328868,18.2251
1301154388868,18.1938
1301154448868,18.2562
1301154508868,18.2198
1301154568868,18.1760
1301154628868,18.2320
1301154688868,18.1322
1301154748868,18.1604
1301154808868,18.1612
1301154868868,18.1784
1301154928868,18.1656
1301154988868,18.1620
1301155048868,18.1973
1301155108868,18.1887
1301155168868,18.1794
1301155228879,18.1403
1301155288879,18.1583
1301155348879,18.2165
1301155408879,18.2080
1301155468879,18.2204
1301155528879,18.2686
1301155588879,18.2673
1301155648879,18.3200
1301155708879,18.3261
1301155768879,18.3460
1301155828879,18.3638
1301155888879,18.3598
1301155948879,18.3052
1301156008879,18.3199
1301156068879,18.3199
1301156128879,18.2900
1301156188879,18.3023
1301156248879,18.3226
1301156308879,18.2587
1301156368879,18.2785
1301156428879,18.2456
1301156488879,18.2723
1301156548879,18.2261
1301156608879,18.2907
1301156668879,18.3390
1301156728879,18.2965
1301156788879,18.2344
1301156848879,18.2744
1301156908879,18.2857
1301156968879,18.2987
1301157028879,18.2754
1301157088879,18.2704
1301157148879,18.2717
1301157208879,18.2802
1301157268879,18.2507
1301157328879,18.3184
1301157388879,18.2398
1301157448879,18.3060
1301157508879,18.2618
1301157568879,18.2327
1301157628879,18.2689
1301157688879,18.2159
1301157748879,18.2771
1301157808879,18.2137
1301157868879,18.2261
1301157928879,18.2077
1301157988879,18.2262
1301158048879,18.1939
1301158108879,18.2399
1301158168879,18.2420
1301158228879,18.1778
1301158288879,18.1942
1301158348879,18.1835
1301158408879,18.2025
1301158468879,18.1451
1301158528879,18.1779
1301158588879,18.1934
1301158648879,18.1687
1301158708879,18.1962
1301158768879,18.1538
1301158828891,18.1483
1301158888891,18.1607
1301158948891,18.1299
1301159008891,18.1458
1301159068891,18.1526
1301159128891,18.1138
1301159188891,18.0749
1301159248891,18.1700
1301159308891,18.0709
1301159368891,18.1091
1301159428891,18.1930
1301159488891,18.1787
1301159548891,18.1493
1301159608891,18.1585
1301159668891,18.2043
1301159728891,18.1817
1301159788891,18.2110
1301159848891,18.1980
1301159908891,18.2407
1301159968891,18.2158
1301160028891,18.2787
1301160088891,18.2023
1301160148891,18.2418
1301160208891,18.1948
1301160268891,18.2575
1301160328891,18.2677
1301160388891,18.2009
1301160448891,18.2274
1301160508891,18.2105
1301160568891,18.2133
1301160628891,18.1926
1301160688891,18.2113
1301160748891,18.2061
1301160808891,18.2317
1301160868891,18.2060
1301160928891,18.1871
1301160988891,18.2004
1301161048891,18.2370
1301161108891,18.2607
1301161168891,18.2447
1301161228891,18.2785
1301161288891,18.2756
1301161348891,18.2628
1301161408891,18.2285
1301161468891,18.2234
1301161528891,18.2544
1301161588891,18.2168
1301161648891,18.2372
1301161708891,18.2346
1301161768891,18.1850
1301161828891,18.3002
1301161888891,18.2171
1301161948891,18.1901
1301162008891,18.2074
1301162068891,18.1352
1301162128891,18.1820
1301162188891,18.1923
1301162248891,18.2185
1301162308891,18.2038
1301162368891,18.1901
1301162428903,18.2055
1301162488903,18.2579
1301162548903,18.2003
1301162608903,18.2178
1301162668903,18.2114
1301162728903,18.2030
1301162788903,18.2698
1301162848903,18.2585
1301162908903,18.2474
1301162968903,18.2092
1301163028903,18.2359
1301163088903,18.2298
1301163148903,18.2513
1301163208903,18.2747
1301163268903,18.2646
1301163328903,18.2396
1301163388903,18.2686
1301163448903,18.2596
1301163508903,18.2264
1301163568903,18.2060
1301163628903,18.2759
1301163688903,18.1797
1301163748903,18.2726
1301163808903,18.2343
1301163868903,18.2432
1301163928903,18.3264
1301163988903,18.2685
1301164048903,18.2717
1301164108903,18.3749
1301164168903,18.3516
1301164228903,18.2963
1301164288903,18.3154
1301164348903,18.3655
1301164408903,18.4012
1301164468903,18.3426
1301164528903,18.3530
1301164588903,18.2883
1301164648903,18.3439
1301164708903,18.3119
1301164768903,18.3273
1301164828903,18.3269
1301164888903,18.3023
1301164948903,18.3482
1301165008903,18.3733
1301165068903,18.3544
1301165128903,18.2859
1301165188903,18.3029
1301165248903,18.3353
1301165308903,18.3255
1301165368903,18.3088
1301165428903,18.3570
1301165488903,18.3486
1301165548903,18.3248
1301165608903,18.3098
1301165668903,18.3178
1301165728903,18.3052
1301165788903,18.2619
1301165848903,18.2860
1301165908903,18.3306
1301165968903,18.3323
1301166028914,18.3134
1301166088914,18.3642
1301166148914,18.3314
1301166208914,18.3167
1301166268914,18.2917
1301166328914,18.3344
1301166388914,18.3178
1301166448914,18.3129
1301166508914,18.2880
1301166568914,18.3357
1301166628914,18.4459
1301166688914,18.4018
1301166748914,18.4521
1301166808914,18.4561
1301166868914,18.4151
1301166928914,18.4063
1301166988914,18.4543
1301167048914,18.3952
1301167108914,18.4317
1301167168914,18.4244
1301167228914,18.4077
1301167288914,18.4443
1301167348914,18.3290
1301167408914,18.3146
1301167468914,18.3427
1301167528914,18.3386
1301167588914,18.3280
1301167648914,18.3159
1301167708914,18.2994
1301167768914,18.2940
1301167828914,18.3118
1301167888914,18.3303
1301167948914,18.3601
1301168008914,18.3625
1301168068914,18.2880
1301168128914,18.3824
1301168188914,18.3356
1301168248914,18.3339
1301168308914,18.3293
1301168368914,18.3508
1301168428914,18.3125
1301168488914,18.3384
1301168548914,18.3621
1301168608914,18.3926
1301168668914,18.3837
1301168728914,18.3732
1301168788914,18.3519
1301168848914,18.4115
1301168908914,18.4526
1301168968914,18.3663
1301169028914,18.3873
1301169088914,18.3565
1301169148914,18.3590
1301169208914,18.3257
1301169268914,18.3511
1301169328914,18.3776
1301169388914,18.3191
1301169448914,18.3147
1301169508914,18.3020
1301169568914,18.3457
1301169628926,18.3660
1301169688926,18.3403
1301169748926,18.3064
1301169808926,18.3453
1301169868926,18.3613
1301169928926,18.3716
1301169988926,18.3616
1301170048926,18.3478
1301170108926,18.3667
1301170168926,18.4140
1301170228926,18.4181
1301170288926,18.4014
1301170348926,18.4545
1301170408926,18.4597
1301170468926,18.4672
1301170528926,18.4127
1301170588926,18.4312
1301170648926,18.4121
1301170708926,18.4777
1301170768926,18.4807
1301170828926,18.4734
1301170888926,18.4725
1301170948926,18.4061
1301171008926,18.4223
1301171068926,18.4643
1301171128926,18.4136
1301171188926,18.3855
1301171248926,18.4276
1301171308926,18.4113
1301171368926,18.3488
1301171428926,18.3556
1301171488926,18.3863
1301171548926,18.4328
1301171608926,18.4696
1301171668926,18.4951
1301171728926,18.5494
1301171788926,18.5528
1301171848926,18.5477
1301171908926,18.5299
1301171968926,18.5448
1301172028926,18.4070
1301172088926,18.3758
1301172148926,18.3736
1301172208926,18.3180
1301172268926,18.2874
1301172328926,18.2636
1301172388926,18.2863
1301172448926,18.3097
1301172508926,18.2715
1301172568926,18.3327
1301172628926,18.2668
1301172688926,18.2869
1301172748926,18.2556
1301172808926,18.2268
1301172868926,18.2509
1301172928926,18.2312
1301172988926,18.1911
1301173048926,18.2881
1301173108926,18.2993
1301173168926,18.2232
1301173228938,18.2373
1301173288938,18.2319
1301173348938,18.2346
1301173408938,18.1943
1301173468938,18.2322
1301173528938,18.2430
1301173588938,18.1929
1301173648938,18.2034
1301173708938,18.2126
1301173768938,18.2195
1301173828938,18.2084
1301173888938,18.1720
1301173948938,18.2202
1301174008938,18.1958
1301174068938,18.1816
1301174128938,18.2170
1301174188938,18.2174
1301174248938,18.2030
1301174308938,18.2188
1301174368938,18.2656
1301174428938,18.2887
1301174488938,18.1971
1301174548938,18.2677
1301174608938,18.2547
1301174668938,18.2517
1301174728938,18.2398
1301174788938,18.2440
1301174848938,18.2865
1301174908938,18.2004
1301174968938,18.2360
1301175028938,18.3283
1301175088938,18.3597
1301175148938,18.3214
1301175208938,18.3079
1301175268938,18.3445
1301175328938,18.3559
1301175388938,18.3767
1301175448938,18.4289
1301175508938,18.2974
1301175568938,18.3312
1301175628938,18.3251
1301175688938,18.2551
1301175748938,18.2858
1301175808938,18.2649
1301175868938,18.3040
1301175928938,18.3529
1301175988938,18.3482
1301176048938,18.3326
1301176108938,18.2982
1301176168938,18.3185
1301176228938,18.3121
1301176288938,18.3230
1301176348938,18.3146
1301176408938,18.2607